Other Public Products
Issued by NWS Grand Forks, ND

Home | Current Version | Previous Version | Text Only | Print | Product List | Glossary On
Versions: 1 2 3 4 5 6 7 8 9 10 11 12 13 14 15 16 17 18 19 20 21 22 23 24 25 26 27 28 29 30 31 32 33 34 35 36 37 38 39 40 41 42 43 44 45 46 47 48 49 50
000
FPUS83 KFGF 281931
OPUFGF
PRAIRIE TO PINES WEATHER ROUNDUP
NATIONAL WEATHER SERVICE EASTERN NORTH DAKOTA/GRAND FORKS ND
200 PM CDT FRI JUL 28 2017

 **SATELLITE DATA USED TO AUGMENT SKY COVER AT AUTOMATED STATIONS**
 *****  WEATHER ACROSS EASTERN NORTH DAKOTA  *****

CITY           SKY/WX    TMP DP  RH WIND       PRES   REMARKS
GRAND FORKS    FAIR      85  60  42 S8        30.05F
GRAND FORKS AF FAIR      84  59  42 SW6       30.06F
GRAND CITY NWS NOT AVBL
BUXTON           N/A     85  63  47 SE6         N/A
DEVILS LAKE    PTSUNNY   83  61  47 S8        30.06S
FARGO          FAIR      86  59  39 SE6       30.06F
WAHPETON ARPT  FAIR      81  59  47 SE3       30.08S
$$

 *****  WEATHER ACROSS CENTRAL AND WESTERN NORTH DAKOTA  *****

CITY           SKY/WX    TMP DP  RH WIND       PRES   REMARKS
JAMESTOWN      FAIR      86  58  38 S7        30.06F
BISMARCK       FAIR      84  62  47 SE14      30.04S
MINOT          FAIR      90  59  35 S13G20    30.00F
MINOT AFB      FAIR      88  57  35 S13G21    29.98F
GARRISON         N/A     83  62  49 S13       30.02S
WILLISTON      FAIR      88  59  37 SE13G18   29.96F
DICKINSON      FAIR      86  59  39 S13G20    29.99F
HETTINGER      FAIR      85  58  39 SE18G24   30.02F
$$

 *****  OTHER OBSERVATIONS NORTHEAST NORTH DAKOTA  *****

CITY           SKY/WX    TMP DP  RH WIND       PRES   REMARKS
WALHALLA       NOT AVBL
LANGDON        FAIR      84  64  51 S8G16     30.07S
CAVALIER       FAIR      82  64  54 S7G14     30.03F
GRAFTON        FAIR      84  59  42 SW6G15    30.06F
CANDO          NOT AVBL
FORT TOTTEN      N/A     84  59  42 S7        29.95S
ROLLA            N/A     82  63  51 S13       30.05S
RUGBY          NOT AVBL
 ***** THE ABOVE OBSERVATIONS ARE NON NWS ARE NOT QUALITY
        CONTROLLED AND MAY MIS-REPORT RAIN FOR SNOW...
$$

 *****  OTHER OBSERVATIONS SOUTHEAST NORTH DAKOTA *****

CITY           SKY/WX    TMP DP  RH WIND       PRES   REMARKS
COOPERSTOWN    FAIR      84  57  39 S10       30.08S
VALLEY CITY    FAIR      82  61  47 S8G16     30.08F
OAKES          NOT AVBL
GWINNER        PTCLDY    82  63  51 SE6       30.07F
SHEYENNE NWR     N/A     84  61  45 SE7       29.95S
BUFFALO          N/A     83  53  34 W8          N/A
WYNDMERE       NOT AVBL
 ***** THE ABOVE OBSERVATIONS ARE NON NWS ARE NOT QUALITY
       CONTROLLED AND MAY MIS-REPORT RAIN FOR SNOW...
$$

  *****  WEATHER ACROSS NORTHERN MINNESOTA  *****

CITY           SKY/WX    TMP DP  RH WIND       PRES   REMARKS
FLAG ISLAND    FAIR      82  66  57 S5        30.06F
WARROAD        FAIR      82  66  57 SW3       30.08S
ROSEAU         FAIR      82  64  54 SW5       30.07F
HALLOCK        FAIR      84  61  45 SW6       30.04F
THF RVR FALLS  FAIR      82  60  47 E5        30.08F
HALSTAD          N/A     83  59  43 S2          N/A
FOSSTON        FAIR      82  64  54 SE3       30.10S
BAUDETTE       FAIR      82  59  45 W5        30.08F
WASKISH        FAIR      82  61  47 W5        30.09F
CROOKSTON      FAIR      82  59  44 SW6       30.07F
$$
  *****  WEATHER ACROSS CENTRAL AND WEST MINNESOTA  *****

CITY           SKY/WX    TMP DP  RH WIND       PRES   REMARKS
BEMIDJI        FAIR      82  56  41 CALM      30.10F
PARK RAPIDS    FAIR      82  56  40 CALM      30.10F
WADENA         FAIR      82  61  47 SE6       30.10F
DETROIT LAKES  FAIR      81  55  41 SW6       30.11F
MOORHEAD       FAIR      84  57  39 SE7       30.07F
FERGUS FALLS   FAIR      81  59  47 SE6       30.07F
ELBOW LAKE     FAIR      82  62  50 S3        30.10F
MORRIS MN        N/A    N/A N/A N/A E5        30.08F
STAPLES        FAIR      81  57  44 SE5       30.11S
WHEATON        PTSUNNY   81  61  50 S6        30.09F
$$
  *****  WEATHER ELSEWHERE ACROSS MINNESOTA  *****

CITY           SKY/WX    TMP DP  RH WIND       PRES   REMARKS
DULUTH         FAIR      76  58  53 S3        30.13F
INTRNTL FALLS  FAIR      81  59  47 W3        30.09F
ELY            FAIR      81  52  36 CALM      30.11F
CLOQUET        FAIR      79  54  41 CALM      30.12F
BRAINERD       FAIR      81  57  43 VRB6      30.12S
HIBBING        FAIR      81  56  42 N5        30.12F
ALEXANDRIA     FAIR      79  60  52 SE5       30.12S
SAINT CLOUD    FAIR      82  60  47 E5        30.10S
MINNEAPOLIS    FAIR      82  57  42 SE9       30.09S
$$

  *****  WEATHER ACROSS SOUTH DAKOTA  *****

CITY           SKY/WX    TMP DP  RH WIND       PRES   REMARKS
SIOUX FALLS    PTSUNNY   80  62  54 SE9       30.09F
BROOKINGS      FAIR      78  60  53 S10       30.11F
WATERTOWN      FAIR      79  60  52 S7        30.09F
HURON          FAIR      79  63  57 S13G18    30.07F
SISSETON         N/A     84  60  44 SE10      30.07S
ABERDEEN       FAIR      81  61  50 S10       30.07F
MITCHELL       FAIR      79  65  62 SE8       30.08F
PIERRE         FAIR      88  56  33 SE16      30.00F
MOBRIDGE       FAIR      84  63  49 SE16      30.01F
RAPID CITY     FAIR      85  59  41 VRB3      30.03F
$$

  *****  SOME WEATHER IN NEARBY STATES *****

CITY           SKY/WX    TMP DP  RH WIND       PRES   REMARKS
GLASGOW MT     FAIR      88  54  31 MISG      29.94F
GREAT FALLS MT FAIR      87  41  19 NW9       30.08F
CHEYENNE WY    FAIR      86  36  16 NW9G23    30.20F
SCOTTSBLUFF NE FAIR      81  64  56 CALM      30.09F
OMAHA NE       PTSUNNY   83  62  49 VRB5      30.06S
DES MOINES IA  FAIR      86  60  41 NE12      30.03F
DAVENPORT IA   FAIR      78  62  57 N14       30.05S
CHICAGO IL     FAIR      78  59  51 NE17G24   30.01S
EAU CLAIRE WI  FAIR      80  50  34 NE7       30.09F
LA CROSSE WI   FAIR      83  54  36 NE6       30.06F
$$

  *****  SOME NATIONAL WEATHER *****

CITY           SKY/WX    TMP DP  RH WIND       PRES   REMARKS
LA GUARDIA NY  PTSUNNY   82  68  62 NE9       29.81F
RALEIGH NC     PTSUNNY   89  73  59 SW14      29.78F THUNDER HX  97
ATLANTA GA     CLOUDY    81  71  71 W12       29.90F
NEW ORLEANS LA FAIR      93  69  45 W12       29.93F HX  98
OKLAHOMA CITY  PTSUNNY   90  72  55 NE7       29.94F HX  97
ALBUQUERQUE NM PTSUNNY   79  58  48 SW6       30.19F
SALT LAKE CITY PTSUNNY   84  51  31 E5        30.15F
LOS ANGELES CA FAIR      74  64  71 W10       29.93F
BOISE ID       FAIR      92  49  22 E8        30.01F
SEATTLE WA     FAIR      68  53  58 W8        30.12S
$$

*** WEATHER ACROSS MANITOBA...SASKATCHEWAN AND ONTARIO ***
                ***ONTARIO***

CITY           SKY/WX    TMP DP  RH WIND       PRES   REMARKS
GERALDTON      MOSUNNY   81  50  34 VRB6      30.10S
THUNDER BAY    MOSUNNY   81  61  50 SE7       30.08F
SIOUX LOOKOUT  MOSUNNY   82  57  42 SW8       30.07F
TORONTO        PTSUNNY   72  52  49 N12       29.97F
BIG TROUT LK   SUNNY     84  57  39 W12       29.93F
PICKLE LAKE    PTSUNNY   84  54  34 W7        30.04F
DRYDEN         SUNNY     82  54  36 S8        30.08F
KENORA         MOSUNNY   81  59  47 S13       30.09F
$$
                *** MANITOBA***

CITY           SKY/WX    TMP DP  RH WIND       PRES   REMARKS
BRANDON        MOSUNNY   84  66  54 SW9G17    29.99F
DAUPHIN        SUNNY     88  66  48 SW10      29.91F HX  90
ISLAND LAKE    PTSUNNY   86  57  37 SW12G21   29.91
PILOT MOUND      N/A     82  64  54 S10         N/A
THE PAS        CLOUDY    88  57  35 SW15G22   29.80F
THOMPSON       PTSUNNY   86  57  37 S13G21    29.76F
WINNIPEG       SUNNY     82  64  54 S5        30.03F
LYNN LAKE      PTSUNNY   82  61  47 SW12      29.68F
CHURCHILL      PTSUNNY   81  63  54 SE9       29.67F
GILLAM         PTSUNNY   88  57  35 SW17G25   29.76F
$$
                ***SASKATCHEWAN***

CITY           SKY/WX    TMP DP  RH WIND       PRES   REMARKS
ESTEVAN        MOSUNNY   86  59  39 SE12      29.96F
KINDERSLEY     MOSUNNY   79  48  34 N13       29.99S
LLOYDMINSTER   PTSUNNY   72  52  49 W12G17    30.00S
PRINCE ALBERT  MOSUNNY   79  63  57 NW10G21   29.88S
REGINA         MOSUNNY   91  55  29 SW14G24   29.89F
YORKTON        SUNNY     84  61  45 S14G20    29.91F


USA.gov is the U.S. government's official web portal to all federal, state and local government web resources and services.